Location: Tumbler Ridge
(55.1167°N, 121.0000°W)
Time: 20:39:51
(UTC-07:00)

Daily predictions for brighter satellites

Satellite Brightness Start Highest point End
(mag) Time Altitude Azimuth Time Altitude Azimuth Time Altitude Azimuth
Spot 2 Rocket 3.5 19:18:30 10° SSE 19:23:29 63° ENE 19:28:29 10° NNW
Cosmos 2237 Rocket 2.4 19:18:54 10° S 19:24:24 52° ESE 19:29:55 10° NE
Cosmos 923 Rocket 4.1 19:19:13 10° SSW 19:24:31 88° WNW 19:29:53 10° NNE
NOAA 12 4.2 19:21:46 10° SSE 19:27:02 89° ENE 19:32:23 10° NNW
Helios 1A 3.1 19:23:49 10° SSE 19:27:55 57° ENE 19:32:04 10° N
CZ-2D R/B 4.1 19:30:01 10° SE 19:33:30 32° ENE 19:37:01 10° N
Cosmos 1953 3.6 19:31:00 10° SE 19:34:01 21° E 19:37:02 10° NE
Envisat 4.4 19:31:03 10° E 19:34:44 21° NE 19:38:25 10° N
CZ-4C R/B 2.5 19:30:39 10° SSW 19:35:56 49° SE 19:41:57 10° NE
ATLAS 5 CENTAUR R/B 3.5 19:33:30 10° SE 19:35:59 14° ESE 19:38:33 10° E
Aureole 2 Rocket 3.8 19:33:29 10° SSE 19:37:16 29° ESE 19:40:59 10° NE
Cosmos 1980 3.7 19:32:07 10° SSW 19:37:43 67° ESE 19:43:22 10° NE
USA 186 2.8 19:37:53 11° ESE 19:39:21 16° ENE 19:40:57 10° NNE
NOSS 0 Rocket 3.9 19:33:51 10° SSW 19:40:00 71° ESE 19:46:12 10° NE
Cosmos 1766 Rocket 3.6 19:35:38 10° N 19:40:01 58° ENE 19:44:20 10° SSE
Cosmos 1932 4.5 19:35:29 10° SW 19:41:44 75° SE 19:48:09 10° NE
Cosmos 1812 Rocket 3.8 19:38:34 10° SSW 19:42:54 75° WNW 19:47:18 10° N
SL-16 R/B 2.7 19:38:03 10° S 19:43:12 37° ESE 19:48:22 10° NE
Meteor 1-29 3.8 19:44:22 10° NNE 19:47:31 30° E 19:50:39 10° SSE
HJ-1C 3.5 19:45:53 10° SSE 19:49:15 84° WSW 19:52:39 10° NNW
Cosmos 1805 4.2 19:47:09 10° SSE 19:50:32 28° E 19:53:57 10° NNE
Cosmos 2034 Rocket 4.3 19:45:44 10° SSE 19:51:38 45° E 19:57:37 10° NNE
Meteor 1-28 Rocket 3.1 19:49:01 10° NNE 19:52:47 71° ESE 19:56:30 10° S
H-2A R/B 3.1 19:49:18 10° SE 19:53:04 46° ENE 19:56:48 10° N
Cosmos 1378 3.6 19:49:59 10° NNW 19:53:43 65° W 19:57:25 10° S
H-2A R/B 3.9 19:51:48 11° E 19:54:14 16° NE 19:56:59 10° NNE
Cosmos 1464 Rocket 4.0 19:48:36 10° S 19:54:41 59° E 20:00:45 10° NNE
Cosmos 1346 3.5 19:53:16 10° N 19:56:09 41° ENE 19:59:00 10° SE
COSMOS 2455 3.2 19:54:19 10° SW 20:00:20 69° NW 20:06:24 10° NE
Cosmos 1076 Rocket 3.7 19:57:31 10° NNW 20:01:52 78° W 20:06:11 10° S
Meteor 1-22 Rocket 4.0 19:57:56 10° S 20:03:16 78° E 20:08:35 10° NNE
Cosmos 2360 Rocket 4.0 19:59:34 10° W 20:04:35 31° NW 20:09:37 10° NNE
Cosmos 2219 Rocket 2.6 19:59:02 10° SW 20:04:40 68° NW 20:10:21 10° NNE
Cosmos 1544 4.1 20:02:05 10° SSE 20:05:17 27° E 20:08:29 10° NNE
Cosmos 1980 Rocket 4.5 20:02:36 10° NW 20:06:16 17° N 20:09:57 10° NNE
SPOT 5 4.2 20:05:56 14° E 20:07:49 18° NE 20:10:48 10° N
USA 215 3.7 20:03:05 10° ENE 20:09:10 39° SE 20:15:13 10° SSW
Helios 1B rocket 2.4 20:05:08 10° NNE 20:09:14 60° ESE 20:13:17 10° S
Cosmos 1470 4.0 20:09:48 17° ESE 20:11:08 21° E 20:14:05 10° NE
Cosmos-2242 3.3 20:08:56 10° SSE 20:13:05 44° E 20:17:17 10° NNE
Cosmos 1452 Rocket 3.9 20:09:06 10° NNW 20:14:20 65° WSW 20:19:32 10° SSE
Cosmos 1758 3.5 20:10:43 10° S 20:14:39 49° E 20:18:39 10° NNE
Cosmos 1500 Rocket 3.8 20:10:24 10° N 20:14:43 50° ENE 20:18:52 11° SSE
Cosmos 1408 Rocket 4.0 20:11:18 10° NNW 20:15:40 66° W 20:19:58 10° S
FENGYUN 3A 3.7 20:11:33 10° SSE 20:16:57 89° WSW 20:22:24 10° NNW
ERS-1 Rocket 3.4 20:14:41 15° SE 20:18:29 42° ENE 20:23:13 10° N
SeaSat 1 3.4 20:14:54 10° NE 20:18:55 24° ESE 20:22:56 10° SSE
Cosmos 1842 Rocket 4.4 20:16:31 12° SE 20:19:51 28° E 20:23:36 10° NNE
Cosmos 2369 Rocket 2.3 20:15:31 10° NNW 20:21:08 62° NE 20:25:24 18° SE
Cosmos 1607 3.9 20:15:19 10° SW 20:21:29 89° SE 20:27:42 10° NE
Cosmos 482 Debris 3.9 20:19:52 10° WSW 20:22:03 41° SSE 20:23:07 28° ESE
Cosmos 192 4.4 20:17:56 10° S 20:22:47 56° ESE 20:27:39 10° NNE
Cosmos 2151 3.5 20:22:02 10° N 20:25:59 37° ENE 20:28:00 23° ESE
CZ-4B DEB 3.3 20:23:29 10° S 20:26:44 61° WSW 20:30:00 10° NNW
Resurs 01 Rocket 3.0 20:23:19 10° S 20:27:33 42° W 20:31:49 10° NNW
Lacrosse 4 Rocket 4.0 20:24:48 10° NW 20:27:53 18° NNW 20:30:57 10° NNE
Cosmos 1733 4.2 20:29:18 25° E 20:29:37 26° E 20:32:52 10° NNE
Cosmos 1603 4.3 20:25:11 10° S 20:30:18 35° ESE 20:35:27 10° NE
Cosmos 1943 Rocket 2.8 20:26:53 10° NNW 20:32:18 43° NE 20:35:25 23° ESE
Cosmos 292 Rocket 4.4 20:28:34 10° SW 20:33:19 58° WNW 20:38:08 10° NNE
ATLAS 3B R/B 3.2 20:27:59 10° WSW 20:35:31 67° NNW 20:42:43 10° NE
Cosmos 1939 Rocket 3.2 20:36:31 28° ESE 20:38:16 45° ENE 20:42:05 10° N
Cosmos 1420 Rocket 4.3 20:33:03 10° NNW 20:38:20 70° WSW 20:43:37 10° SSE
Cosmos 1674 2.6 20:35:21 10° N 20:39:15 85° E 20:42:19 16° SSE
Cosmos 2333 Rocket 3.1 20:34:50 10° SW 20:40:29 54° NW 20:46:10 10° NNE
Cosmos 839 Rocket 4.5 20:32:15 10° NW 20:40:53 89° SW 20:45:57 20° SE
Cosmos 1743 Rocket 3.8 20:38:03 10° NNW 20:42:33 71° W 20:46:57 10° S
Cosmos 1328 3.9 20:39:44 10° N 20:43:38 52° ENE 20:45:07 32° SE
Cosmos 1331 Rocket 4.3 20:38:44 10° NNW 20:43:57 51° NE 20:46:30 28° ESE
Cosmos 2058 3.5 20:40:20 10° N 20:44:13 38° ENE 20:45:11 33° ESE
CZ-4 DEB 2.8 20:46:41 48° E 20:47:02 51° ENE 20:50:05 10° N
NOSS 3-2 (A) 3.5 20:44:32 10° SSW 20:50:42 64° SE 20:57:32 10° NE
GP-B 3.1 20:46:45 10° N 20:51:11 63° E 20:54:08 20° SSE
ALOS 3.3 20:46:47 10° S 20:51:17 46° W 20:55:48 10° NNW
Cosmos 1867 4.3 20:46:09 10° WSW 20:51:31 55° NNW 20:56:57 10° NE
Cosmos 1655 Rocket 4.1 20:47:42 10° N 20:53:53 58° ENE 20:57:36 25° SE
USA 238 DEB 3.9 20:48:56 10° WSW 20:56:00 79° NW 21:03:06 10° NE
USA 238 3.9 20:49:02 10° SW 20:56:07 79° NW 21:03:12 10° NE
ERBS 2.3 20:54:06 10° WNW 20:57:38 85° NNE 20:58:17 57° E
SL-14 R/B 3.6 20:54:08 10° N 20:58:02 47° ENE 20:58:39 43° E
Nadezhda 4 Rocket 4.4 20:52:03 10° NNW 20:58:17 64° W 21:04:27 10° S
Cosmos 1269 Rocket 4.2 20:53:16 10° S 20:58:20 49° ESE 21:03:25 10° NE
Exosat Rocket 4.2 20:54:08 10° NNW 21:00:03 84° ENE 21:05:27 23° SSE
Cosmos 1092 Rocket 4.1 20:57:12 10° NNW 21:03:28 75° W 21:09:37 10° S
Cosmos 1048 Rocket 4.2 20:59:50 10° S 21:04:54 48° ESE 21:09:55 10° NE
H-2A R/B 3.3 21:05:04 22° ENE 21:05:49 23° NE 21:09:47 10° N
Cosmos 2279 Rocket 4.4 21:04:44 32° SE 21:06:35 39° E 21:12:18 10° NNE
ASTEX 1 3.6 21:02:14 10° N 21:07:10 71° W 21:12:03 10° SSW
Cosmos 2237 Rocket 3.4 21:03:15 10° WSW 21:08:39 43° NW 21:14:05 10° NNE
Sich 1 3.6 21:05:26 10° N 21:09:36 38° ENE 21:09:44 38° ENE
Cosmos 1953 3.2 21:06:17 10° SSW 21:10:11 50° WNW 21:14:05 10° N
USA 186 3.4 21:09:42 18° WSW 21:10:18 20° W 21:12:11 10° NW
Aureole 2 Rocket 4.0 21:08:35 10° SW 21:12:48 47° WNW 21:16:54 10° NNE
Envisat 2.9 21:10:28 29° SSE 21:13:09 89° ENE 21:18:17 10° NNW
Cosmos 2142 Rocket 4.5 21:07:57 10° S 21:14:15 65° E 21:20:35 10° NNE
YAOGAN 6 3.1 21:18:26 45° NE 21:18:26 45° NE 21:21:32 10° N
ATLAS 5 CENTAUR R/B 1.9 21:14:41 10° SSW 21:19:33 62° SE 21:23:28 18° ENE
Cosmos 2026 Rocket 3.9 21:14:02 10° N 21:20:09 89° ENE 21:23:48 26° S
Terra 3.2 21:22:26 23° NE 21:22:26 23° NE 21:26:09 10° N
USA 245 4.1 21:24:55 37° NE 21:24:55 37° NE 21:27:36 10° N
CZ-4C R/B 2.9 21:18:46 10° WSW 21:24:26 60° NNW 21:30:59 10° NE
Cosmos 1428 Rocket 4.4 21:19:05 10° N 21:25:20 70° ENE 21:27:49 38° SSE
Cosmos 1634 Rocket 3.9 21:19:13 10° S 21:25:27 79° E 21:31:41 10° NNE
Cosmos 1805 Rocket 3.5 21:21:22 10° N 21:25:51 74° ENE 21:26:25 64° SE
SL-16 R/B 2.8 21:21:32 10° SW 21:27:09 57° NW 21:32:48 10° NNE
NOSS 3-2 (C) 3.5 21:21:28 10° SW 21:27:46 80° SE 21:34:46 10° NE
SPOT 1/Viking Rocket 3.7 21:27:34 47° E 21:28:19 51° ENE 21:33:20 10° N
H-2A R/B 2.0 21:28:56 64° SE 21:29:33 79° ENE 21:34:05 10° NNW
Cosmos 1626 3.6 21:26:12 10° N 21:28:28 27° NNE 21:28:28 27° NNE
CENTAUR R/B 4.1 21:34:47 20° ENE 21:34:47 20° ENE 21:37:01 10° NE
Cosmos 1633 Rocket 3.1 21:36:55 10° N 21:40:58 62° NE 21:40:58 62° NE
MetOp-A 4.0 21:39:59 52° SSE 21:41:23 89° ENE 21:46:48 10° NNW
ARGOS 3.1 21:43:16 58° ESE 21:44:01 65° ENE 21:49:27 10° NNW
Cosmos 1656 Rocket 3.6 21:39:35 10° NNW 21:44:59 61° NE 21:45:38 56° E
Cosmos 724 4.2 21:39:11 10° SW 21:45:10 79° SE 21:51:21 10° NE
SPOT 5 2.5 21:45:11 78° SSW 21:45:24 82° WSW 21:49:47 10° NNW
CRYOSAT 2 4.4 21:40:43 10° N 21:45:08 58° ENE 21:45:08 58° ENE
Cosmos 1703 3.8 21:42:15 10° N 21:45:21 52° N 21:45:21 52° N
Cosmos 1470 3.7 21:45:09 26° SW 21:46:59 47° WNW 21:50:47 10° N
Cosmos 2219 Rocket 4.4 21:45:07 10° W 21:49:41 24° NNW 21:54:16 10° NNE
Cosmos 1110 Rocket 4.5 21:44:51 10° NNW 21:50:02 56° WSW 21:51:32 41° SSW
Cosmos 1980 Rocket 4.2 21:48:33 10° NNW 21:52:34 19° NNE 21:55:21 14° NE
USA 215 3.1 21:49:07 29° ENE 21:52:46 81° SSE 21:59:20 10° WSW
Cosmos 2221 3.0 21:56:52 51° NNE 21:56:52 51° NNE 22:00:11 10° NNE
NOAA 11 4.0 21:55:31 69° SE 21:56:08 80° ENE 22:01:36 10° NNW
SeaSat 1 2.5 21:51:57 10° NNE 21:56:55 76° NW 22:01:51 10° SW
ERS-1 Rocket 4.1 21:54:42 23° SSW 21:57:20 38° W 22:02:03 10° NNW
SL-08 RB Rocket 4.0 22:02:45 60° NNE 22:02:45 60° NNE 22:06:35 10° NNW
Cosmos 1666 Rocket 3.8 21:59:49 10° NNW 22:04:02 67° WNW 22:04:02 67° WNW
Cosmos 2369 Rocket 3.5 21:59:56 10° NW 22:04:53 32° WSW 22:07:12 24° SSW
Lacrosse 4 Rocket 3.8 22:05:08 10° NNW 22:08:14 18° NNE 22:09:31 16° NNE
Meteor 2-1 Rocket 4.2 22:10:17 65° S 22:11:13 89° E 22:17:09 10° NNE
Cosmos 1943 3.3 22:12:49 61° NE 22:12:49 61° NE 22:17:29 10° NE
Meteor 2-20 Rocket 4.5 22:05:43 10° NNW 22:11:55 78° W 22:13:13 57° SSW
Nimbus 7 Rocket 4.3 22:07:46 10° NNE 22:13:52 80° ESE 22:14:34 70° S
Cosmos 1603 4.2 22:08:31 10° SW 22:14:12 60° NW 22:19:57 10° NNE
Cosmos 1943 Rocket 2.6 22:10:45 10° NW 22:16:14 52° WSW 22:16:56 49° SW
Cosmos 1933 Rocket 4.4 22:13:03 10° N 22:16:17 46° N 22:16:17 46° N
SL-16 R/B 4.5 22:15:10 10° NNW 22:18:52 17° N 22:22:24 11° NE
Cosmos 1437 Rocket 4.5 22:21:51 29° N 22:21:51 29° N 22:23:58 10° N
Cosmos 2180 Rocket 4.4 22:24:08 60° SSW 22:25:19 81° WNW 22:31:31 10° N
ATLAS 3B R/B 3.8 22:20:20 10° WNW 22:27:22 43° N 22:32:56 15° ENE
Cosmos 2285 Rocket 4.1 22:23:49 10° NNW 22:30:10 60° NE 22:30:19 60° ENE
Cosmos 2278 4.2 22:34:20 10° NNW 22:39:34 51° NNE 22:39:34 51° NNE
NOSS 3-2 (A) 4.2 22:35:30 10° WSW 22:41:50 56° NNW 22:48:53 10° NE
H-2A R/B 2.5 22:45:42 58° NNW 22:45:42 58° NNW 22:49:53 10° NNW
Cosmos 2322 Rocket 4.3 22:41:08 10° NNW 22:45:10 19° NNE 22:47:30 15° NE
USA 81 4.4 22:46:40 61° NNW 22:46:40 61° NNW 22:51:09 10° N
Terra 2.9 23:01:20 42° NNW 23:01:20 42° NNW 23:04:34 10° NNW
Cosmos 1697 Rocket 3.7 22:55:51 10° NNW 23:00:38 37° NNE 23:00:38 37° NNE
ATLAS 5 CENTAUR R/B 2.8 22:59:31 10° W 23:04:29 49° NNW 23:05:06 46° N
Cosmos 2369 4.2 23:00:03 10° NNW 23:04:46 55° N 23:04:46 55° N
H-2A R/B 4.5 23:06:05 17° W 23:06:09 17° W 23:09:10 10° NW
SL-16 R/B 4.5 23:08:06 10° WNW 23:12:31 22° NNW 23:16:56 10° NNE
CZ-4C R/B 3.6 23:08:19 10° WNW 23:14:05 41° N 23:18:49 18° ENE
NOSS 3-2 (C) 4.4 23:12:54 10° W 23:19:14 50° NNW 23:26:17 10° ENE
CENTAUR R/B 2.8 23:21:54 67° NNE 23:21:54 67° NNE 23:28:18 10° NE
USA 215 3.4 23:36:30 70° NW 23:36:30 70° NW 23:42:23 10° W
Cosmos 2360 Rocket 4.4 23:32:44 10° NNW 23:36:45 19° NNE 23:39:16 15° NE
Cosmos 1980 Rocket 3.3 23:32:43 10° NNW 23:37:05 38° NNE 23:37:05 38° NNE
Cosmos 1745 Rocket 4.5 23:41:51 10° NNW 23:46:51 57° NNW 23:46:51 57° NNW
Lacrosse 4 Rocket 3.9 23:43:58 10° NNW 23:45:51 22° NNW 23:45:51 22° NNW
